Location: Gourdon
(45.5548°N, 1.8903°E)
Time: 07:11:50
(UTC+00:00)

Daily predictions for brighter satellites

Satellite Brightness Start Highest point End
(mag) Time Altitude Azimuth Time Altitude Azimuth Time Altitude Azimuth
ATLAS 3B R/B 3.1 17:01:10 10° NW 17:08:09 78° SW 17:15:24 10° SSE
Cosmos 2228 3.4 17:04:49 10° N 17:08:53 41° ENE 17:12:56 10° SSE
Cosmos 1400 Rocket 3.8 17:05:10 10° NNW 17:09:12 55° W 17:13:09 10° S
Meteor 2-5 Rocket 3.7 17:07:34 10° S 17:13:03 63° E 17:18:32 10° NNE
CZ-4C R/B 3.1 17:08:33 10° WSW 17:13:23 43° NW 17:19:12 10° NNE
SJ 16-02 3.2 17:14:00 10° ESE 17:16:04 13° E 17:18:08 10° ENE
CZ-3B R/B 2.9 17:14:23 10° NNW 17:16:10 19° NNE 17:19:08 10° ENE
CORIOLIS 4.2 17:14:32 10° SSE 17:19:56 80° ENE 17:25:20 10° NNW
Cosmos 2263 Rocket 2.3 17:15:04 10° SSW 17:20:46 87° WNW 17:26:29 10° NNE
Cosmos 783 Rocket 4.5 17:16:34 10° NNW 17:21:50 80° ENE 17:27:04 10° SSE
Envisat 4.4 17:18:30 10° S 17:23:19 43° W 17:28:10 10° NNW
Cosmos 1354 Rocket 4.2 17:20:03 10° SSW 17:25:23 83° WNW 17:30:46 10° NNE
NOAA 11 4.2 17:19:53 10° SSE 17:25:23 81° ENE 17:30:55 10° NNW
Cosmos 1455 3.8 17:23:49 10° NNE 17:26:09 15° ENE 17:28:29 10° ESE
Cosmos 2058 Rocket 3.8 17:24:15 10° N 17:28:16 31° ENE 17:32:17 10° SE
Cosmos 1300 2.6 17:26:49 10° N 17:30:39 82° E 17:34:27 10° S
X-37B 2.7 17:28:44 10° S 17:30:53 17° SSE 17:33:03 10° ESE
Landsat 5 4.2 17:31:40 10° N 17:35:30 50° WNW 17:39:14 10° SSW
ARGOS 4.3 17:33:53 10° ESE 17:37:46 21° ENE 17:41:40 10° NNE
CREW DRAGON DEMO-1 DEB 4.0 17:37:46 10° NW 17:40:17 26° N 17:41:52 17° ENE
Okean 1-7 Rocket 4.3 17:36:18 10° SSE 17:40:21 33° E 17:44:27 10° NNE
Lacrosse 5 2.4 17:35:49 10° NW 17:40:36 41° NNE 17:44:59 12° E
ISS -2.3 17:40:18 10° SSW 17:43:07 25° SE 17:45:00 16° E
Cosmos 1943 3.8 17:37:33 10° NNW 17:43:10 63° WSW 17:48:42 10° S
Cosmos 1726 Rocket 3.5 17:39:33 10° N 17:43:56 70° E 17:48:18 10° SSE
Cosmos 1939 Rocket 2.8 17:40:25 10° SSE 17:44:31 73° ENE 17:48:37 10° N
ERS-2 3.1 17:42:03 11° NE 17:45:02 27° E 17:48:09 10° SSE
EXPRESS MD2 4.3 17:37:01 10° WNW 17:46:17 81° NNE 17:50:21 12° ESE
CZ-2C R/B 4.2 17:45:50 14° E 17:46:32 15° E 17:49:31 10° ESE
Meteor 1-24 Rocket 3.6 17:41:49 10° S 17:47:11 86° WNW 17:52:31 10° N
COSMOS 2455 3.0 17:42:12 10° SSW 17:48:05 59° ESE 17:54:01 10° NE
Cosmos 1844 4.5 17:48:25 10° SSE 17:53:18 31° ESE 17:57:10 15° NE
Cosmos 1833 Rocket 4.4 17:51:21 10° N 17:54:02 13° NE 17:54:41 13° NE
IRS-1C Rocket 4.1 17:50:16 10° SSE 17:55:24 58° ENE 18:00:34 10° N
Cosmos 1315 Rocket 3.9 17:52:36 10° NNW 17:56:26 48° W 18:00:17 10° S
CZ-4 R/B 1.8 17:53:03 10° SE 17:56:53 39° ENE 18:00:40 10° N
Feng Yun 1-1 Rocket 4.1 17:52:40 10° SSE 17:58:04 81° ENE 18:03:38 10° NNW
COSMO-SKYMED 1 2.5 17:58:16 10° NNE 18:02:38 75° ESE 18:06:58 10° S
Cosmos 2279 Rocket 4.2 17:57:31 10° NNW 18:03:47 75° W 18:10:01 10° S
USA 267 4.4 18:04:12 18° E 18:06:58 23° SE 18:11:57 10° S
CZ-4 R/B 4.3 18:06:10 10° SSE 18:10:18 82° ENE 18:14:28 10° N
CZ-4B R/B 1.8 18:09:24 10° N 18:12:46 63° WNW 18:16:02 10° SSW
Okean-O 2.7 18:08:41 10° SSE 18:12:59 54° ENE 18:17:19 10° N
CZ-2C R/B 3.1 18:09:12 10° SSE 18:14:27 87° ENE 18:20:04 10° NNW
Cosmos 1844 Rocket 2.8 18:09:37 10° S 18:15:09 58° ESE 18:19:24 17° NE
Okean O Rocket 3.7 18:12:06 10° SSW 18:16:02 31° W 18:20:00 10° NNW
OE (NEXTSAT) 4.2 18:13:17 10° WSW 18:16:44 80° SSE 18:17:46 42° E
Cosmos 923 Rocket 4.2 18:11:40 10° NNW 18:16:50 47° ENE 18:21:56 10° SE
H-2A R/B 2.0 18:12:07 10° SSE 18:16:57 55° ENE 18:21:56 10° N
Meteor 1-21 Rocket 4.3 18:12:44 10° SSE 18:18:03 51° E 18:23:25 10° NNE
Aureole 2 Rocket 1.9 18:15:36 10° SSW 18:18:35 78° ESE 18:19:28 42° NNE
ATLAS 2AS CENTAUR R/B 4.3 18:11:42 10° W 18:18:40 32° NNW 18:25:29 10° NNE
Cosmos 1689 Rocket 2.5 18:20:01 41° SE 18:20:01 41° SE 18:22:16 10° S
Cosmos 158 Rocket 4.1 18:17:01 10° NNW 18:22:17 57° ENE 18:27:34 10° SE
Cosmos 1898 Rocket 4.3 18:19:15 10° SSE 18:23:42 28° E 18:23:42 28° E
Cosmos 1680 Rocket 3.8 18:19:14 10° N 18:24:13 41° ENE 18:26:36 26° ESE
CZ-2D R/B 4.2 18:26:51 10° S 18:30:35 49° W 18:34:21 10° NNW
Cosmos 1602 Rocket 3.8 18:27:30 10° SSE 18:31:35 42° E 18:31:35 42° E
Cosmos 1818 3.5 18:26:36 10° SSW 18:32:00 76° ESE 18:34:52 29° NE
TELKOM 3 4.0 18:30:22 10° WSW 18:32:11 47° WSW 18:32:11 47° WSW
SAR-Lupe-4 3.4 18:31:28 34° NNE 18:32:54 82° ESE 18:36:29 10° SSW
Meteor 2-10 Rocket 4.1 18:28:18 10° NNW 18:33:46 62° W 18:38:57 10° S
H-2A R/B 4.5 18:31:20 10° NNW 18:34:45 22° WNW 18:38:07 10° WSW
YAOGAN 1 2.4 18:30:36 10° SSE 18:34:55 87° E 18:39:17 10° NNW
Cosmos 489 Rocket 4.4 18:29:36 10° NNW 18:36:02 83° ENE 18:42:21 10° SSE
CSL-04 Rocket 3.6 18:33:31 10° SSE 18:38:48 60° ENE 18:44:11 10° N
Helios 1A Rocket 2.8 18:35:43 10° SSE 18:39:50 79° ENE 18:44:00 10° NNW
USA 234 3.9 18:40:19 31° ENE 18:42:36 40° NNE 18:48:36 10° NW
SAR-Lupe-1 4.1 18:42:35 39° N 18:43:47 75° WNW 18:47:20 10° SSW
Cosmos 1092 Rocket 3.8 18:38:55 10° S 18:45:04 69° E 18:51:12 10° NNE
ATLAS 5 CENTAUR R/B 3.6 18:41:54 10° W 18:45:07 21° NNW 18:47:37 14° N
MOS 1 Rocket 3.9 18:42:37 10° N 18:46:48 50° WNW 18:50:56 10° SSW
Iridium 4 Rocket 3.6 18:41:20 10° N 18:47:01 62° E 18:52:14 10° SSE
Meteor 2-1 Rocket 4.3 18:42:36 10° NNW 18:48:11 74° W 18:53:39 10° S
Cosmos 1812 Rocket 4.0 18:45:37 10° N 18:48:54 45° NNE 18:48:54 45° NNE
Cosmos 2344 4.4 18:44:33 10° NW 18:53:28 57° NE 18:59:35 31° ESE
SJ 16-02 1.7 18:49:42 10° SSW 18:54:04 65° WNW 18:55:59 32° N
SJ-11-01 4.4 18:49:23 10° S 18:54:05 75° WSW 18:58:47 10° NNW
Aureole 3 4.0 18:54:17 10° NNW 18:57:38 43° W 19:00:34 10° SSW
Cosmos 2112 Rocket 3.8 18:56:30 10° NNW 19:01:46 72° ENE 19:02:18 66° ESE
Cosmos 1455 3.5 18:58:22 10° NNW 19:01:58 41° W 19:05:34 10° SSW
CZ-4C R/B 4.4 18:59:51 10° NW 19:03:43 18° NNW 19:06:30 14° NNE
X-37B 2.7 19:03:58 10° WSW 19:05:31 25° SW 19:05:31 25° SW
Cosmos 1703 3.9 19:03:55 10° SSW 19:07:02 52° SW 19:07:02 52° SW
COSMOS 2406 4.0 19:10:55 10° NNW 19:14:49 37° NNE 19:14:49 37° NNE
ARGOS 3.5 19:12:15 10° S 19:17:32 63° WSW 19:22:54 10° NNW
ERS-2 4.5 19:16:37 16° NNW 19:18:27 22° WNW 19:21:20 10° WSW
ISS -1.4 19:16:23 10° WSW 19:17:58 25° W 19:17:58 25° W
Cosmos 44 3.7 19:15:09 10° SSW 19:18:46 53° SSW 19:18:46 53° SSW
Lacrosse 5 2.4 19:18:49 10° WNW 19:23:43 51° SW 19:24:15 49° SSW
CZ-2C R/B 2.6 19:27:19 83° NNW 19:27:28 85° WNW 19:33:05 10° SSW
CZ-4 R/B 4.1 19:29:04 10° SW 19:32:02 19° W 19:34:59 10° NW
NOSS 3-1 (C) 3.9 19:25:12 10° NW 19:32:44 85° NE 19:34:39 58° SE
COSMOS 2455 4.4 19:29:05 10° WSW 19:34:23 31° NW 19:37:13 21° N
Cosmos 990 Rocket 4.4 19:31:32 10° SW 19:36:25 59° W 19:36:25 59° W
Cosmos 1553 Rocket 4.2 19:30:54 10° N 19:36:14 63° N 19:36:14 63° N
Cosmos 1833 Rocket 4.0 19:33:38 10° NNW 19:36:25 29° N 19:36:25 29° N
Cosmos 2026 Rocket 4.3 19:33:33 10° SSW 19:39:34 62° WNW 19:45:43 10° N
Cosmos 2082 Rocket 4.1 19:36:05 10° NNW 19:37:48 19° N 19:37:48 19° N
USA 229 DEB 3.8 19:42:22 10° NW 19:49:18 79° N 19:49:18 79° N
USA 229 3.8 19:42:28 10° NW 19:49:21 77° N 19:49:21 77° N
USA 267 3.3 19:51:34 67° SSW 19:51:34 67° SSW 19:57:10 10° SW
H-2A R/B 4.4 19:53:11 10° SW 19:56:46 20° W 20:00:25 10° NW
Cosmos 1844 Rocket 4.5 19:54:41 10° WSW 19:59:25 27° NW 20:01:07 23° NNW
NOSS 3-1 (A) 4.1 19:57:46 10° NW 20:04:26 74° NNW 20:04:26 74° NNW
USA 234 4.2 20:27:40 42° NW 20:27:40 42° NW 20:31:45 10° NW
